Location: Unspecified
(52.0178°N, 0.0000°E)
Time: 16:48:40
(UTC+00:00)

NOAA 18 - Visible Passes

Search period start: 17 July 2019 00:00
Search period end: 27 July 2019 00:00
Orbit: 840 x 862 km, 99.1° (Epoch: 16 July)

Date Brightness Start Highest point End Pass type
(mag) Time Alt. Az. Time Alt. Az. Time Alt. Az.
17 Jul 7.6 21:36:24 10° SW 21:39:47 16° W 21:43:09 10° NW visible
18 Jul 7.5 21:23:55 10° SW 21:27:52 20° W 21:31:51 10° NW visible
19 Jul 7.2 21:11:34 10° SW 21:15:58 24° W 21:20:24 10° NW visible
20 Jul 7.0 20:59:22 10° SSW 21:04:07 30° W 21:08:53 10° NNW visible
21 Jul 6.7 20:47:16 10° SSW 20:52:16 36° W 20:57:19 10° NNW visible
24 Jul 7.9 21:56:44 10° WSW 21:58:36 12° W 22:00:29 10° WNW visible
25 Jul 7.7 21:43:41 10° WSW 21:46:39 15° W 21:49:38 10° NW visible
26 Jul 7.6 21:31:04 10° SW 21:34:44 18° W 21:38:25 10° NW visible
